Theta_e
291 291 291 293 293 294 294 294 294 294 295 295 295 295 295 295 294 293 294 294 294 295 296 296 296 297 299 300 302 302 302 303 304 305 305 305 305 305 305 306 309 310 310 309 308 310 310 310 314 315 313 313 314 313
291 292 293 293 294 294 294 295 295 295 295 295 295 295 296 296 296 295 295 294 295 295 296 296 296 297 299 298 300 300 301 302 303 305 306 306 306 306 305 306 306 307 307 309 310 309 308 309 311 310 311 312 311 313
292 293 293 294 294 295 295 295 296 296 296 296 297 297 297 297 297 297 297 297 295 296 296 296 297 298 298 299 299 300 301 301 302 303 305 306 306 305 306 307 306 307 307 309 310 308 311 309 308 309 310 311 314 315
293 294 295 296 296 296 296 296 296 297 296 296 297 297 298 298 298 298 298 297 297 297 298 299 298 298 299 299 300 300 300 301 301 302 303 306 306 306 306 307 307 307 307 307 308 308 307 308 309 308 309 312 312 314
296 298 298 299 299 299 299 298 298 297 298 297 297 297 298 298 298 298 298 297 297 298 300 300 300 299 299 300 301 301 301 301 302 303 304 305 304 305 306 307 308 307 308 308 309 308 308 307 306 307 308 311 310 313
298 299 300 300 300 300 299 299 299 299 299 298 298 298 298 298 298 297 298 297 298 298 298 301 300 300 299 301 301 300 301 301 302 301 304 303 305 306 307 307 307 306 306 307 308 307 307 307 307 308 310 309 310 310
300 300 299 298 300 300 300 300 300 301 299 299 298 299 298 298 298 298 298 298 298 298 298 300 302 300 300 301 301 301 302 302 302 300 302 304 304 305 306 307 305 305 306 306 305 306 307 307 307 308 307 307 309 308
300 300 299 298 298 298 298 298 298 298 298 300 300 299 299 299 298 298 299 298 298 298 298 301 301 302 300 301 302 301 302 302 302 302 302 305 304 304 308 306 305 305 305 305 306 307 307 307 306 306 306 306 304 301
300 300 299 298 299 299 299 299 299 298 298 299 299 299 298 298 298 299 299 298 298 299 300 300 302 303 301 301 301 301 301 303 302 303 303 303 304 305 304 304 304 305 306 306 307 307 307 307 309 307 304 304 301 297
299 299 299 298 299 299 299 299 299 298 298 299 300 299 296 297 298 298 298 298 299 298 299 301 300 302 301 301 302 302 302 302 302 302 303 305 305 303 303 303 304 305 305 306 306 307 307 309 307 303 303 300 298 300
299 299 299 299 299 299 300 299 299 298 298 299 299 299 298 298 298 299 297 300 299 301 298 300 301 303 301 303 304 301 303 303 303 304 304 304 304 305 304 304 304 302 301 301 302 303 304 305 305 300 299 297 294 294
300 300 300 300 299 299 298 300 299 299 299 299 299 298 298 299 299 301 301 300 300 301 299 299 300 301 300 301 303 301 304 303 306 304 305 305 304 299 300 299 298 298 299 299 300 299 301 302 301 298 295 293 292 290
300 299 299 299 298 300 299 299 299 299 299 299 300 299 300 297 302 301 299 300 300 300 299 299 301 299 298 300 303 302 304 305 304 306 306 303 296 295 294 294 295 296 296 296 296 296 295 295 295 295 295 291 290 286
299 300 300 299 298 299 299 299 299 299 300 297 297 294 298 298 297 298 300 301 297 298 299 299 299 302 300 302 303 303 303 304 305 306 305 295 293 292 292 291 291 291 292 292 292 291 291 291 290 289 290 290 289 287
299 298 298 298 299 299 299 300 300 299 295 292 293 294 293 291 291 291 292 295 292 295 298 300 300 299 301 303 302 302 303 305 304 302 295 292 291 290 290 289 288 288 288 288 288 287 286 286 286 284 284 284 285 284
300 300 296 296 297 298 296 297 298 295 289 287 287 291 289 293 291 290 291 292 290 292 297 299 302 300 301 302 302 301 304 302 296 293 290 289 289 288 287 286 286 286 286 285 284 284 283 283 282 281 280 280 280 281
299 300 299 297 297 297 297 298 294 288 288 287 287 286 287 287 287 287 287 288 288 291 301 301 301 298 298 298 296 294 294 292 290 289 288 287 287 286 284 284 284 284 283 282 282 282 281 280 280 280 278 277 279 280
299 299 299 299 300 298 295 291 288 287 286 286 287 285 285 285 286 286 286 287 290 294 294 294 293 293 293 294 293 291 289 287 287 286 286 285 285 284 284 283 282 282 281 280 280 279 279 279 279 277 277 278 279 279
298 299 298 298 297 295 291 289 288 286 285 285 285 284 284 284 283 283 284 285 286 287 288 288 288 288 288 288 288 289 288 287 286 284 283 283 283 283 282 282 281 280 280 279 279 278 278 278 277 278 279 281 281 280
296 296 297 297 296 293 290 288 287 286 287 285 285 284 283 283 282 282 281 282 283 283 282 283 283 282 282 282 283 285 285 284 284 284 283 282 282 282 281 280 280 279 279 279 278 278 278 277 278 279 280 281 281 280
296 295 295 294 292 292 291 289 287 286 286 286 286 285 284 283 281 280 280 280 279 279 281 279 279 279 280 281 282 283 283 283 284 283 282 282 280 280 280 279 279 279 278 278 278 278 279 280 279 281 282 281 280 276
296 296 295 294 293 292 291 290 289 288 289 287 287 285 285 284 282 280 279 278 277 276 276 277 277 278 279 279 280 280 281 281 281 280 280 280 280 279 279 279 279 278 278 278 280 280 280 280 280 280 279 276 275 275
297 296 293 293 293 293 291 291 292 291 291 289 287 286 285 284 282 280 279 277 276 275 275 276 277 278 278 278 279 279 280 279 279 279 279 279 278 278 279 279 279 280 280 280 281 280 280 279 278 277 276 275 274 273
293 290 287 286 289 289 288 288 289 289 289 289 287 286 285 283 281 280 279 277 276 274 275 275 276 278 277 277 277 277 277 278 279 279 278 279 279 279 279 280 280 281 281 281 281 279 277 277 276 276 275 274 273 273
288 280 282 283 282 285 285 284 284 286 286 286 284 283 282 282 282 280 279 276 275 274 274 274 275 275 276 276 275 277 278 278 278 278 278 279 280 280 280 280 281 280 279 278 277 277 276 276 275 275 274 274 273 273
279 278 280 280 281 282 282 282 281 281 282 281 280 279 279 280 279 278 277 274 274 273 273 273 274 275 274 275 276 277 277 277 278 279 278 278 278 279 279 278 277 276 276 276 276 276 275 275 274 274 273 273 272 272
279 278 277 275 277 278 278 277 277 279 279 279 278 277 278 277 277 276 275 273 273 272 272 273 273 273 273 274 275 276 277 278 278 278 277 277 277 277 277 276 276 275 275 275 274 274 274 274 273 273 272 271 271 271
277 276 276 273 274 274 274 275 275 276 276 275 275 275 275 275 276 274 273 272 272 273 273 274 274 274 274 275 275 275 275 276 276 277 277 276 276 275 275 275 275 274 274 274 273 273 273 273 273 272 272 272 271 271
275 274 274 271 273 273 272 274 274 273 272 274 275 274 273 272 270 272 272 272 273 273 273 273 273 274 274 274 275 275 275 275 275 276 276 275 274 274 274 273 273 273 273 273 273 273 272 272 272 272 271 271 271 270
275 273 273 272 273 274 272 271 272 270 271 272 272 272 271 270 270 272 272 273 273 273 273 274 274 274 274 274 274 275 275 275 275 275 274 274 273 273 273 272 272 273 272 272 272 272 272 271 271 271 270 270 270 270
275 275 274 274 274 273 272 272 273 272 272 272 272 272 271 270 271 272 272 272 272 273 273 273 274 274 274 274 273 273 274 273 273 273 273 273 272 272 272 272 272 272 271 271 271 271 271 270 270 270 270 270 269 269
274 274 275 275 274 273 274 274 274 274 274 274 273 272 272 272 271 271 271 271 272 272 273 272 272 272 271 271 271 271 271 271 271 271 271 271 271 271 271 271 271 271 271 270 270 270 270 270 269 269 269 269 269 268
275 275 275 275 275 275 274 275 275 275 274 274 271 271 271 271 270 269 270 271 271 271 270 270 270 270 270 270 270 270 270 270 270 270 270 270 270 270 270 270 270 270 270 270 270 270 269 269 269 269 269 268 268 268
Wind_Speed
35 36 39 40 38 37 36 35 35 36 35 35 35 36 36 36 35 37 42 38 39 25 29 24 24 26 10 15 9 4 2 9 6 5 4 4 5 7 10 11 5 7 6 5 6 7 13 7 6 6 12 25 24 22
37 39 37 36 34 33 31 31 31 32 33 34 36 36 36 37 40 39 40 42 41 30 10 28 41 33 25 26 20 15 11 2 8 4 5 3 4 3 9 9 10 11 10 4 7 5 13 14 5 19 23 24 25 18
38 39 38 37 35 34 33 31 28 27 26 28 30 33 36 38 41 45 47 31 39 32 22 31 27 22 34 36 32 19 17 21 11 9 2 2 5 3 5 9 14 10 7 6 5 7 13 3 19 25 17 23 19 20
38 37 36 36 37 38 37 35 33 31 30 29 28 28 27 28 33 36 46 40 40 10 9 10 13 36 34 32 35 36 31 18 22 15 5 4 4 4 5 7 11 9 4 7 9 11 14 13 13 17 22 20 15 11
34 34 33 29 30 28 26 29 32 34 33 33 32 30 27 26 25 30 37 38 42 29 2 13 15 25 21 29 30 33 29 26 19 6 4 4 6 7 8 8 10 14 13 10 11 14 15 15 19 19 22 19 17 11
29 25 23 20 22 18 15 18 24 30 32 32 31 30 30 28 26 25 13 34 35 42 4 3 6 7 15 20 20 30 30 28 24 5 4 5 8 9 4 8 12 15 17 19 17 20 18 17 17 18 13 13 10 5
19 15 13 13 13 13 16 18 20 23 26 30 34 31 32 31 32 25 7 14 36 36 7 2 3 2 9 11 15 18 19 14 11 5 6 5 15 8 7 14 19 22 21 24 28 27 23 22 18 11 9 11 4 4
12 11 9 11 13 15 18 19 19 20 23 24 32 33 34 31 31 22 7 22 42 21 6 3 3 2 8 7 8 12 11 15 9 6 5 3 4 4 5 11 20 21 26 29 29 22 22 20 15 11 5 4 5 7
5 6 9 12 14 10 13 23 28 25 25 26 30 30 32 31 18 12 21 31 30 7 6 5 5 5 9 10 9 8 10 5 6 5 6 7 6 8 9 16 20 21 17 23 21 11 11 13 10 6 4 6 8 9
13 5 9 9 8 13 13 14 23 30 33 32 35 16 8 24 28 25 16 9 8 6 4 4 7 4 10 10 7 5 6 5 4 6 5 4 12 24 23 22 25 16 16 15 17 18 14 7 5 6 7 7 9 14
8 8 5 14 11 10 6 21 36 38 43 27 8 6 40 41 26 5 6 5 5 4 9 9 16 5 9 5 4 8 2 5 4 5 6 5 9 14 23 22 15 10 8 8 11 10 11 10 8 8 9 10 12 15
15 14 10 14 18 23 34 43 50 42 26 15 30 36 25 8 5 5 4 4 4 5 7 5 10 10 6 4 3 5 3 2 4 10 4 4 3 8 4 3 4 7 9 9 10 9 9 8 8 11 12 14 15 17
25 26 33 32 32 31 34 34 33 39 47 45 18 6 5 2 4 6 8 4 4 5 8 7 5 7 4 4 2 4 5 6 5 4 3 3 6 9 9 7 7 8 7 7 7 4 3 5 8 12 16 16 19 24
27 17 17 21 28 32 38 40 40 25 8 6 4 6 3 3 3 2 2 3 4 1 13 14 6 3 4 5 2 4 2 2 4 4 1 2 10 11 10 8 6 6 5 4 2 2 4 7 11 13 16 20 25 29
18 12 7 14 14 17 12 10 10 8 6 7 6 5 4 3 4 4 2 2 3 4 8 7 3 4 3 3 3 2 3 3 1 2 3 9 11 10 8 7 5 5 3 2 2 5 8 12 15 19 21 25 29 35
10 10 10 11 8 7 7 10 11 9 7 6 8 4 4 4 4 5 6 5 5 0 4 3 3 3 2 0 3 1 3 1 3 3 9 10 10 8 6 5 4 2 2 5 8 11 15 17 21 26 27 29 33 37
4 1 6 9 14 8 3 7 9 10 7 5 5 9 6 6 6 5 6 7 7 3 0 1 2 2 1 3 2 3 3 3 7 8 8 8 8 7 5 4 3 5 8 10 14 15 18 21 24 28 34 33 37 39
6 4 1 2 3 6 20 10 8 7 7 9 5 9 12 9 8 8 9 11 5 2 3 3 3 4 4 3 3 3 3 3 6 7 8 8 7 5 4 6 7 10 13 16 19 23 26 28 31 33 36 36 38 36
6 5 4 5 4 4 6 8 8 6 8 5 6 6 6 7 11 11 10 10 11 10 6 5 5 4 3 5 7 7 5 4 2 4 6 5 5 6 8 11 13 15 17 19 21 22 25 27 32 35 37 37 38 35
11 9 5 5 3 6 6 6 6 8 4 5 7 14 8 6 8 11 17 15 16 8 7 5 4 6 7 10 10 6 3 2 2 3 5 6 6 8 10 13 16 18 21 22 25 28 30 32 32 33 35 35 34 32
9 8 8 11 18 13 7 5 7 6 8 6 7 9 8 16 19 12 13 14 13 8 4 8 10 9 8 7 5 4 4 2 1 1 5 6 6 9 11 14 16 19 21 22 26 27 29 31 31 31 30 28 27 28
8 8 8 11 8 7 7 8 9 8 5 8 5 5 5 5 7 12 10 15 7 7 7 9 11 10 10 12 9 7 5 4 6 8 8 8 9 9 10 12 16 19 21 24 26 27 28 28 28 26 26 27 26 26
7 6 7 7 6 6 5 3 3 4 3 3 4 3 4 4 5 6 6 7 7 12 12 10 7 6 7 7 7 7 6 6 8 8 9 11 12 12 14 16 20 23 25 25 25 26 25 25 25 25 25 24 24 25
7 7 8 7 9 4 4 5 5 4 4 3 3 3 3 4 4 6 4 4 11 14 14 15 9 6 8 11 12 11 10 9 12 13 13 14 17 17 19 20 21 22 23 22 21 22 23 22 21 21 22 23 22 21
6 11 7 7 8 4 4 3 5 4 4 5 3 4 3 3 3 3 3 7 13 15 15 13 12 11 10 9 9 10 9 12 14 18 17 18 21 22 22 22 21 19 17 18 19 20 21 20 20 20 19 18 18 18
8 12 7 6 5 5 4 3 4 5 3 3 4 3 3 3 4 4 3 10 10 12 13 12 10 9 12 12 11 12 11 13 15 20 19 19 19 19 20 19 19 16 14 12 13 16 18 18 18 18 18 16 15 14
6 6 8 9 4 6 6 7 7 5 4 4 3 3 3 4 4 3 5 9 7 8 9 9 9 10 11 13 13 12 10 11 16 20 19 17 16 15 14 14 15 16 14 12 11 12 14 16 17 16 16 16 14 12
7 8 6 8 9 11 4 4 4 4 3 4 2 4 3 3 3 3 5 6 6 8 10 12 12 13 14 15 15 16 16 16 15 15 15 15 14 13 13 12 13 12 11 12 11 11 11 11 12 12 11 10 10 10
8 4 5 6 7 9 10 5 4 4 4 3 2 3 4 4 4 4 5 6 7 7 7 9 10 10 10 9 8 9 10 11 10 11 13 14 13 12 10 10 9 9 9 9 10 10 10 10 11 10 10 9 8 7
5 5 6 7 5 6 9 7 6 8 9 11 14 20 17 11 11 8 7 8 9 10 9 9 9 9 9 9 10 9 9 9 9 9 9 8 9 9 9 8 8 8 8 7 7 7 8 8 8 8 7 7 6 6
5 5 7 8 6 10 13 17 17 17 15 14 15 16 12 7 11 12 10 10 9 7 6 7 7 8 8 9 10 10 11 11 11 9 8 7 7 6 6 6 6 6 6 6 6 6 6 6 6 6 6 6 5 5
6 6 6 5 6 7 5 3 4 4 4 5 5 4 4 3 4 3 7 9 7 8 9 9 9 11 10 10 9 9 8 8 7 6 5 5 5 4 4 4 4 4 4 4 4 5 5 5 5 5 4 4 4 4
12 12 10 7 5 4 3 3 3 3 4 3 3 3 3 3 3 2 4 6 7 8 8 8 9 9 8 8 7 7 7 6 5 4 3 2 2 2 3 3 3 3 3 3 3 3 4 4 4 4 4 4 4 4
Wind_Direction
283 282 281 279 278 274 269 265 261 256 250 247 243 238 234 231 225 220 227 227 218 230 244 243 250 246 258 227 229 164 261 225 188 225 240 215 238 223 242 255 181 176 192 183 220 240 244 358 41 334 322 319 313 327
285 286 286 284 280 275 267 260 255 250 244 239 236 235 234 231 226 221 225 226 227 221 246 241 242 243 242 244 236 238 242 263 219 251 216 219 211 246 250 248 224 241 227 247 210 212 281 309 322 297 301 297 307 290
291 289 285 280 274 268 264 261 251 243 237 234 231 230 228 228 227 222 220 215 212 222 241 238 243 244 233 232 230 229 235 241 240 241 309 285 254 254 241 245 261 262 241 237 215 232 243 260 273 272 301 320 308 276
289 283 279 276 271 267 260 251 245 243 238 231 226 227 228 224 221 218 213 208 207 198 225 236 249 227 230 229 226 227 235 244 243 242 233 222 233 239 268 287 285 276 253 257 269 280 281 275 241 307 320 325 339 305
290 293 289 282 278 267 253 249 242 237 232 229 228 228 223 214 212 211 210 208 208 196 226 231 235 240 233 223 226 227 234 236 241 237 212 227 253 270 255 275 264 256 257 267 274 286 294 293 302 302 312 321 333 333
298 300 293 276 265 261 239 239 231 227 225 220 217 217 207 204 197 187 186 209 203 201 207 249 254 224 224 211 218 222 227 234 232 210 202 222 242 223 245 258 264 267 269 269 277 285 293 292 298 295 291 326 328 21
310 305 292 288 271 250 240 233 227 222 217 213 208 206 197 194 193 186 177 193 194 196 173 193 240 165 176 184 208 215 222 229 228 206 212 244 254 238 254 254 264 268 272 276 281 285 285 286 291 290 298 298 300 111
311 313 294 282 263 254 247 234 221 212 211 197 198 196 190 178 182 185 165 165 181 170 160 189 188 179 172 172 185 196 202 216 225 219 208 215 232 212 255 243 249 258 265 274 276 282 275 284 280 270 244 194 146 109
46 8 303 300 296 289 276 236 214 203 195 186 177 181 171 168 163 132 147 165 166 176 182 185 181 178 175 199 199 177 193 212 227 222 217 222 226 227 242 245 259 258 267 281 282 288 283 286 290 227 204 190 177 153
11 53 335 350 340 318 293 216 190 191 177 172 164 140 127 149 149 126 123 144 164 208 203 217 191 174 169 173 177 167 198 215 229 223 212 231 246 246 248 255 264 284 281 288 278 275 271 277 245 195 183 185 188 181
24 2 11 356 344 46 94 155 156 150 154 147 128 107 131 138 138 141 154 171 159 188 195 210 201 153 193 178 155 207 182 186 228 181 204 224 249 244 244 249 259 270 295 286 273 275 276 275 239 208 187 177 177 173
65 47 42 60 72 68 85 128 141 141 146 135 123 124 122 126 129 157 141 148 197 201 166 188 190 191 149 164 178 179 237 183 247 151 216 245 70 29 33 3 341 312 304 292 284 274 262 251 203 185 167 164 167 173
96 99 95 86 88 103 102 108 116 120 118 118 109 96 148 121 152 165 167 169 189 179 167 163 141 145 129 182 176 193 222 223 128 218 230 47 29 6 357 350 336 323 315 303 289 278 218 186 174 175 169 168 162 161
119 97 85 55 86 94 102 111 118 120 109 81 72 77 14 98 88 97 67 79 77 138 149 163 133 164 155 177 184 225 216 194 217 235 162 38 357 344 345 347 342 335 329 319 298 222 199 175 164 166 167 167 165 157
106 62 55 90 76 71 98 124 168 181 72 65 41 66 68 88 65 34 23 121 40 150 145 135 128 159 147 190 200 178 194 225 275 31 10 344 339 341 344 346 352 352 2 39 153 159 151 153 151 144 151 155 159 154
144 75 46 39 71 83 90 138 98 93 66 59 49 85 26 106 61 45 34 54 14 113 179 193 138 167 148 182 166 31 261 55 38 349 336 331 338 345 1 19 20 45 123 134 142 145 144 146 148 144 145 146 147 148
103 100 106 54 55 61 121 109 48 54 63 57 58 42 66 66 45 20 3 355 345 315 134 47 110 77 98 86 81 13 27 2 344 343 343 348 352 0 20 40 79 112 122 126 127 130 133 137 138 137 130 136 141 140
187 188 225 217 88 55 57 53 76 68 70 52 74 49 59 54 27 23 1 355 357 42 37 61 45 54 41 55 64 22 7 357 0 2 1 3 9 25 59 92 108 115 118 122 125 125 134 138 133 128 135 138 136 133
129 140 136 156 130 85 68 47 50 86 66 79 59 47 56 51 35 27 26 35 64 79 81 52 55 45 34 21 345 347 350 344 7 39 45 53 67 93 104 111 114 113 117 120 119 119 126 130 130 136 137 139 133 132
82 78 115 138 130 85 76 52 64 83 73 89 71 56 62 25 22 30 38 40 48 59 52 44 37 10 337 328 334 347 14 57 96 89 73 74 105 126 126 124 120 128 129 132 131 134 133 131 135 138 138 135 134 134
94 93 99 84 61 68 80 74 68 92 115 98 109 80 70 51 47 40 30 28 54 33 58 25 8 2 9 9 11 12 18 20 10 159 137 115 115 115 122 131 136 134 132 132 133 132 134 132 137 139 139 137 137 136
116 109 73 58 71 72 73 43 100 113 87 115 89 63 61 38 33 32 38 45 62 27 2 342 354 8 19 27 27 39 46 71 98 103 112 115 109 111 116 129 135 131 129 129 131 132 133 136 139 140 140 136 136 135
103 73 59 49 77 67 79 82 74 106 102 94 90 66 52 56 49 38 69 43 42 3 4 3 23 23 45 53 59 67 80 93 91 102 115 113 112 118 127 133 134 133 131 130 134 135 136 139 141 141 141 139 137 135
76 59 38 44 44 74 70 46 44 61 60 72 70 75 57 54 57 66 70 46 3 6 18 20 31 36 51 58 52 57 62 84 100 107 112 118 118 116 123 125 126 126 128 130 134 136 136 138 141 142 141 141 140 138
78 17 25 35 28 57 57 46 26 51 64 43 73 63 46 34 69 66 62 15 4 8 13 22 30 45 49 48 55 66 93 104 107 106 104 110 115 118 118 118 118 120 130 138 140 142 143 144 145 145 145 146 145 144
71 24 37 27 32 42 35 64 44 42 46 67 58 52 45 63 68 63 45 357 358 3 8 16 24 42 54 63 68 78 89 105 115 114 113 118 116 116 116 120 121 121 127 137 142 146 146 147 148 149 148 147 147 149
66 48 48 36 45 73 83 62 52 51 60 47 39 42 50 67 71 67 17 8 9 10 29 47 56 65 71 75 80 85 95 112 116 110 109 110 110 113 122 127 129 127 128 131 137 146 150 152 154 155 154 150 149 149
64 44 57 20 59 44 75 54 40 42 43 22 55 48 69 59 80 51 25 13 44 62 68 72 77 83 87 91 96 100 99 100 105 109 112 110 107 109 112 119 124 127 132 133 135 138 143 147 149 151 154 157 158 161
55 54 75 46 58 53 40 38 34 35 10 24 86 89 95 80 64 57 44 62 76 79 76 73 71 73 77 81 89 100 106 107 105 113 110 104 107 108 114 116 120 123 127 136 141 144 148 153 158 162 164 167 169 173
48 38 87 54 53 51 24 37 62 63 71 85 102 106 95 84 76 88 90 86 83 78 77 79 80 79 79 83 86 93 100 103 103 106 106 112 114 114 116 120 125 130 134 140 149 154 157 162 168 172 175 181 186 192
82 72 73 63 82 103 101 88 81 85 88 90 97 103 108 111 77 66 75 76 72 74 77 73 75 82 86 85 86 85 88 92 96 100 103 107 113 118 123 127 133 136 137 141 148 153 161 169 176 183 190 197 204 215
46 61 109 102 127 157 120 111 92 89 72 85 68 87 89 94 84 63 55 74 80 90 87 85 87 86 83 81 83 87 89 89 92 94 96 100 107 114 122 133 142 147 150 155 162 166 172 180 189 195 202 214 226 235
85 83 89 98 122 153 146 115 78 98 68 77 62 71 78 80 106 130 90 83 94 95 93 91 86 82 78 75 75 74 74 72 70 71 78 91 107 130 139 148 155 160 168 178 187 193 198 204 213 223 234 244 251 260